Location: Santa Maria di Sala
(45.5070°N, 12.0300°E)
Time: 05:50:56
(UTC+01:00)

Envisat - Pass Details

Date: 28 September 2023
Orbit: 762 x 764 km, 98.3° (Epoch: 09 December)

Event Time Altitude Azimuth Distance (km) Brightness Sun altitude
Rises 06:14:02 0° 1° (N) 3,243 6.4 -9.9°
Reaches altitude 10° 06:16:48 10° 347° (NNW) 2,312 5.4 -9.4°
Maximum altitude 06:20:36 22° 298° (WNW) 1,637 4.3 -8.7°
Drops below altitude 10° 06:24:25 10° 249° (WSW) 2,300 4.9 -8.1°
Enters shadow 06:24:54 - 246° (WSW) 2,452 5.0 -8.0°
